Weather observations for the past three days for
Edmonton International Airport
| Date | Time (mdt) | Wind (kph) | Vis. (km) | Weather | Sky Cond. | Temperature (ºC) | Relative Humidity | Wind Chill (°C) | Heat Index (°C) | Pressure | Precipitation (cm) | ||||||
|---|---|---|---|---|---|---|---|---|---|---|---|---|---|---|---|---|---|
| Air | Dwpt | 6 hour | altimeter (cm) | sea level (mb) | 1 hr | 3 hr | 6 hr | ||||||||||
| Max. | Min. | ||||||||||||||||
| 02 | 17:00 | W 20 G 31 | 32.19 | A Few Clouds | FEW090 FEW250 | 21 | -1 | 23% | 75.95 | 1014.2 | |||||||
| 02 | 16:00 | SW 17 | 32.19 | A Few Clouds | FEW090 FEW250 | 20 | -2 | 23% | 76.02 | 1015.3 | |||||||
| 02 | 15:00 | Vrbl 9 | 32.19 | A Few Clouds | FEW084 FEW250 | 20 | -1 | 24% | 76.1 | 1016.4 | |||||||
| 02 | 14:00 | SW 13 G 30 | 32.19 | A Few Clouds | FEW084 | 19 | -1 | 26% | 76.2 | 1017.5 | |||||||
| 02 | 13:00 | W 13 G 33 | 32.19 | A Few Clouds | FEW079 | 18 | -1 | 28% | 76.28 | 1018.5 | |||||||
| 02 | 12:00 | W 7 | 32.19 | A Few Clouds | FEW076 FEW250 | 17 | -2 | 27% | 76.33 | 1019.3 | |||||||
| 02 | 11:00 | Calm | 32.19 | A Few Clouds | FEW072 FEW250 | 16 | -2 | 29% | 76.38 | 1019.8 | |||||||
| 02 | 10:00 | W 9 | 32.19 | A Few Clouds | FEW081 FEW250 | 14 | -1 | 36% | 76.4 | 1020.2 | |||||||
| 02 | 09:00 | W 7 | 32.19 | A Few Clouds | FEW081 FEW250 | 11 | 1 | 50% | 76.45 | 1020.8 | |||||||
| 02 | 08:00 | SW 7 | 32.19 | A Few Clouds | FEW081 FEW250 | 6 | 2 | 76% | 5 | 76.48 | 1021.2 | ||||||
| 02 | 07:00 | S 7 | 32.19 | A Few Clouds | FEW081 FEW250 | 1 | -1 | 87% | -1 | 76.48 | 1021.4 | ||||||
| 02 | 06:00 | S 9 | 32.19 | A Few Clouds | FEW081 FEW250 | -2 | -3 | 93% | -5 | 76.45 | 1021.3 | ||||||
| 02 | 05:00 | SW 6 | 32.19 | A Few Clouds | FEW081 FEW250 | -1 | -2 | 93% | 76.43 | 1021.1 | |||||||
| 02 | 04:00 | SW 7 | 32.19 | A Few Clouds | FEW081 FEW250 | -1 | -2 | 93% | -3 | 76.43 | 1021.0 | ||||||
| 02 | 03:00 | SW 9 | 32.19 | A Few Clouds | FEW081 FEW250 | 0 | -2 | 87% | -3 | 76.43 | 1020.9 | ||||||
| 02 | 02:00 | SW 7 | 32.19 | A Few Clouds | FEW081 FEW250 | 0 | -1 | 93% | -2 | 76.4 | 1020.7 | ||||||
| 02 | 01:00 | W 7 | 32.19 | A Few Clouds | FEW081 FEW250 | 2 | -1 | 81% | 0 | 76.4 | 1020.4 | ||||||
| 02 | 00:00 | NW 4 | 32.19 | Partly Cloudy | FEW081 SCT250 | 5 | 1 | 76% | 76.38 | 1019.7 | |||||||
| 01 | 23:00 | N 6 | 32.19 | A Few Clouds | FEW081 FEW250 | 7 | 1 | 66% | 76.35 | 1019.3 | |||||||
| 01 | 22:00 | N 9 | 32.19 | A Few Clouds | FEW081 FEW250 | 9 | 1 | 58% | 8 | 76.33 | 1018.8 | ||||||
| 01 | 21:00 | N 15 | 32.19 | Partly Cloudy | FEW081 FEW110 SCT250 | 13 | 1 | 44% | 76.25 | 1017.9 | |||||||
| 01 | 20:00 | NW 19 | 32.19 | Mostly Cloudy | SCT082 BKN110 BKN150 BKN250 | 16 | -1 | 31% | 76.17 | 1016.5 | |||||||
| 01 | 19:00 | NW 19 G 30 | 32.19 | Mostly Cloudy | FEW072 BKN110 BKN150 BKN250 | 17 | -1 | 30% | 76.15 | 1016.6 | |||||||
| 01 | 18:00 | W 19 G 30 | 32.19 | Mostly Cloudy | FEW070 BKN100 BKN250 | 18 | 1 | 32% | 76.15 | 1016.4 | |||||||
| 01 | 17:00 | NW 28 G 39 | 32.19 | Mostly Cloudy | FEW070 SCT150 BKN250 | 18 | 1 | 32% | 76.15 | 1016.3 | |||||||
| 01 | 16:00 | N 22 | 32.19 | Mostly Cloudy | SCT070 SCT140 BKN250 | 18 | 1 | 32% | 76.12 | 1016.1 | |||||||
| 01 | 14:00 | NW 17 G 28 | 32.19 | Overcast | FEW062 FEW140 OVC240 | 17 | 2 | 37% | 76.15 | 1016.4 | |||||||
| 01 | 13:00 | NW 30 | 32.19 | Overcast | BKN130 OVC240 | 17 | 1 | 34% | 76.15 | 1016.4 | |||||||
| 01 | 12:00 | NW 24 | 32.19 | Mostly Cloudy | BKN120 BKN240 | 17 | 2 | 37% | 76.12 | 1016.1 | |||||||
| 01 | 11:00 | NW 22 | 32.19 | Mostly Cloudy | BKN120 BKN240 | 17 | 1 | 34% | 76.12 | 1016.0 | |||||||
| 01 | 10:00 | NW 11 | 32.19 | Mostly Cloudy | FEW140 BKN240 | 15 | 1 | 39% | 76.12 | 1016.2 | |||||||
| 01 | 09:00 | W 13 | 32.19 | Mostly Cloudy | SCT120 BKN240 | 13 | 0 | 41% | 76.1 | 1015.7 | |||||||
| 01 | 08:00 | NW 13 | 32.19 | Mostly Cloudy | FEW100 BKN240 | 12 | -1 | 41% | 76.1 | 1015.2 | |||||||
| 01 | 07:00 | W 15 | 32.19 | Mostly Cloudy | FEW100 BKN240 | 8 | -2 | 50% | 6 | 76.07 | 1014.8 | ||||||
| 01 | 05:00 | W 20 | 32.19 | Partly Cloudy | SCT250 | 9 | -2 | 46% | 6 | 75.97 | 1013.6 | ||||||
| 01 | 04:00 | W 20 | 32.19 | A Few Clouds | FEW250 | 9 | -2 | 46% | 6 | 75.95 | 1013.1 | ||||||
| 01 | 03:00 | W 19 | 32.19 | A Few Clouds | FEW250 | 10 | -2 | 43% | 8 | 75.95 | 1013.0 | ||||||
| 01 | 02:00 | SW 15 | 32.19 | Clear | SKC | 8 | -2 | 50% | 6 | 75.95 | 1013.4 | ||||||
| 01 | 01:00 | S 19 | 32.19 | A Few Clouds | FEW250 | 9 | -2 | 46% | 7 | 75.95 | 1013.3 | ||||||
| 01 | 00:00 | S 13 | 32.19 | A Few Clouds | FEW250 | 9 | -2 | 46% | 7 | 75.97 | 1013.7 | ||||||
| 30 | 23:00 | SE 15 | 32.19 | A Few Clouds | FEW250 | 9 | -2 | 46% | 7 | 75.95 | 1014.0 | ||||||
| 30 | 22:00 | SE 15 | 32.19 | A Few Clouds | FEW250 | 10 | -1 | 47% | 8 | 75.97 | 1014.4 | ||||||
| 30 | 21:00 | S 7 | 32.19 | Partly Cloudy | SCT250 | 15 | -2 | 31% | 75.97 | 1014.1 | |||||||
| 30 | 20:00 | SW 11 | 32.19 | Partly Cloudy | SCT250 | 20 | -3 | 21% | 76 | 1014.4 | |||||||
| 30 | 19:00 | Vrbl 6 | 32.19 | Partly Cloudy | SCT250 | 22 | -3 | 19% | 76.05 | 1014.9 | |||||||
| 30 | 18:00 | NW 11 | 32.19 | Mostly Cloudy | BKN250 | 22 | -3 | 19% | 76.1 | 1015.9 | |||||||
| 30 | 17:00 | NW 6 | 32.19 | Mostly Cloudy | BKN250 | 22 | -3 | 19% | 76.12 | 1016.3 | |||||||
| 30 | 16:00 | W 15 | 32.19 | Mostly Cloudy | BKN250 | 22 | -3 | 19% | 76.17 | 1017.2 | |||||||
| 30 | 15:00 | W 11 | 32.19 | Mostly Cloudy | BKN250 | 21 | -3 | 20% | 76.23 | 1017.9 | |||||||
| 30 | 14:00 | NW 6 | 32.19 | Mostly Cloudy | BKN250 | 20 | -3 | 21% | 76.28 | 1018.4 | |||||||
| 30 | 13:00 | W 9 | 32.19 | Mostly Cloudy | BKN250 | 20 | -1 | 24% | 76.33 | 1019.3 | |||||||
| 30 | 12:00 | W 7 | 32.19 | A Few Clouds | FEW250 | 18 | 0 | 30% | 76.38 | 1020.1 | |||||||
| 30 | 11:00 | NW 11 | 32.19 | Partly Cloudy | SCT250 | 15 | -1 | 34% | 76.43 | 1020.8 | |||||||
| 30 | 10:00 | W 13 | 32.19 | Partly Cloudy | SCT250 | 13 | -1 | 38% | 76.48 | 1021.4 | |||||||
| 30 | 09:00 | W 7 | 32.19 | A Few Clouds | FEW250 | 10 | 0 | 50% | 9 | 76.5 | 1021.5 | ||||||
| 30 | 08:00 | S 7 | 32.19 | A Few Clouds | FEW250 | 7 | -1 | 57% | 6 | 76.5 | 1021.7 | ||||||
| 30 | 07:00 | S 9 | 32.19 | A Few Clouds | FEW250 | 3 | -3 | 65% | 1 | 76.5 | 1021.9 | ||||||
| 30 | 06:00 | S 11 | 32.19 | A Few Clouds | FEW250 | 0 | -4 | 75% | -3 | 76.5 | 1022.1 | ||||||
| 30 | 05:00 | S 13 | 32.19 | A Few Clouds | FEW240 | 2 | -4 | 65% | -1 | 76.53 | 1022.1 | ||||||
| 30 | 04:00 | S 15 | 32.19 | A Few Clouds | FEW240 | 0 | -4 | 75% | -4 | 76.56 | 1022.7 | ||||||
| 30 | 03:00 | S 11 | 32.19 | A Few Clouds | FEW240 | -1 | -4 | 80% | -4 | 76.61 | 1023.6 | ||||||
| 30 | 02:00 | S 13 | 32.19 | Clear | SKC | 1 | -4 | 70% | -2 | 76.63 | 1023.6 | ||||||
| 30 | 01:00 | S 9 | 32.19 | A Few Clouds | FEW240 | 0 | -4 | 75% | -3 | 76.63 | 1023.9 | ||||||
| 30 | 00:00 | S 7 | 32.19 | A Few Clouds | FEW250 | 2 | -4 | 65% | 0 | 76.63 | 1023.8 | ||||||
| 29 | 23:00 | SE 9 | 32.19 | A Few Clouds | FEW240 | 3 | -4 | 60% | 1 | 76.63 | 1024.0 | ||||||
| 29 | 22:00 | SE 15 | 32.19 | A Few Clouds | FEW090 FEW250 | 5 | -4 | 53% | 2 | 76.63 | 1023.8 | ||||||
| 29 | 21:00 | E 13 | 32.19 | A Few Clouds | FEW090 FEW250 | 11 | -4 | 35% | 76.58 | 1023.0 | |||||||
| 29 | 20:00 | NE 13 | 32.19 | A Few Clouds | FEW090 FEW250 | 14 | -5 | 27% | 76.56 | 1022.9 | |||||||
| 29 | 19:00 | NE 17 G 30 | 32.19 | Partly Cloudy | FEW090 SCT250 | 16 | -5 | 23% | 76.56 | 1023.0 | |||||||
| 29 | 18:00 | NE 13 | 32.19 | Mostly Cloudy | FEW090 BKN250 | 17 | -4 | 24% | 76.53 | 1022.8 | |||||||
| Date | Time (mdt) | Wind (kph) | Vis. (km) | Weather | Sky Cond. | Air | Dwpt | Max. | Min. | Relative Humidity | Wind Chill (°C) | Heat Index (°C) | altimeter (cm) | sea level (mb) | 1 hr | 3 hr | 6 hr |
| 6 hour | |||||||||||||||||
| Temperature (ºC) | Pressure | Precipitation (cm) | |||||||||||||||